Year,Month,Day,Hour,Minute,Value (Times are PST for windspeed in km/hr)
2017,05,22,00,00,0.80
2017,05,22,00,01,2.60
2017,05,22,00,02,1.90
2017,05,22,00,03,3.10
2017,05,22,00,04,1.70
2017,05,22,00,05,3.30
2017,05,22,00,06,3.40
2017,05,22,00,07,3.80
2017,05,22,00,08,2.70
2017,05,22,00,09,1.00
2017,05,22,00,10,0.10
2017,05,22,00,11,0.00
2017,05,22,00,12,0.10
2017,05,22,00,13,0.00
2017,05,22,00,14,0.00
2017,05,22,00,15,0.10
2017,05,22,00,16,1.40
2017,05,22,00,17,0.00
2017,05,22,00,18,0.70
2017,05,22,00,19,0.60
2017,05,22,00,20,0.00
2017,05,22,00,21,0.00
2017,05,22,00,22,0.00
2017,05,22,00,23,0.10
2017,05,22,00,24,0.00
2017,05,22,00,25,0.10
2017,05,22,00,26,0.00
2017,05,22,00,27,0.10
2017,05,22,00,28,0.10
2017,05,22,00,29,2.00
2017,05,22,00,30,0.80
2017,05,22,00,31,0.00
2017,05,22,00,32,0.10
2017,05,22,00,33,0.00
2017,05,22,00,34,0.00
2017,05,22,00,35,0.00
2017,05,22,00,36,0.00
2017,05,22,00,37,0.00
2017,05,22,00,38,0.10
2017,05,22,00,39,0.00
2017,05,22,00,40,0.00
2017,05,22,00,41,0.00
2017,05,22,00,42,0.00
2017,05,22,00,43,0.00
2017,05,22,00,44,0.00
2017,05,22,00,45,0.00
2017,05,22,00,46,0.00
2017,05,22,00,47,0.00
2017,05,22,00,48,0.00
2017,05,22,00,49,0.00
2017,05,22,00,50,0.00
2017,05,22,00,51,0.00
2017,05,22,00,52,0.00
2017,05,22,00,53,0.00
2017,05,22,00,54,0.00
2017,05,22,00,55,0.00
2017,05,22,00,56,0.00
2017,05,22,00,57,0.00
2017,05,22,00,58,0.00
2017,05,22,00,59,0.00
2017,05,22,01,00,0.00
2017,05,22,01,01,0.00
2017,05,22,01,02,0.00
2017,05,22,01,03,0.00
2017,05,22,01,04,0.00
2017,05,22,01,05,0.00
2017,05,22,01,06,1.70
2017,05,22,01,07,0.00
2017,05,22,01,08,0.70
2017,05,22,01,09,3.20
2017,05,22,01,10,3.20
2017,05,22,01,11,3.20
2017,05,22,01,12,3.20
2017,05,22,01,13,3.20
2017,05,22,01,14,3.20
2017,05,22,01,15,3.20
2017,05,22,01,16,3.20
2017,05,22,01,17,3.20
2017,05,22,01,18,3.20
2017,05,22,09,14,16.50
2017,05,22,09,15,5.60
2017,05,22,09,16,9.20
2017,05,22,09,17,7.90
2017,05,22,09,18,5.80
2017,05,22,09,19,9.60
2017,05,22,09,20,11.90
2017,05,22,09,21,8.90
2017,05,22,09,22,11.30
2017,05,22,09,23,7.70
2017,05,22,09,24,13.20
2017,05,22,09,25,15.50
2017,05,22,09,26,12.00
2017,05,22,09,27,4.30
2017,05,22,09,28,10.40
2017,05,22,09,29,7.80
2017,05,22,09,30,6.90
2017,05,22,09,31,6.10
2017,05,22,09,32,6.60
2017,05,22,09,33,6.60
2017,05,22,09,34,4.70
2017,05,22,09,35,8.90
2017,05,22,09,36,8.40
2017,05,22,09,37,13.00
2017,05,22,09,38,7.90
2017,05,22,09,39,9.50
2017,05,22,09,40,9.30
2017,05,22,09,41,5.60
2017,05,22,09,42,8.50
2017,05,22,09,43,8.50
2017,05,22,09,44,5.70
2017,05,22,09,45,3.30
2017,05,22,09,46,0.20
2017,05,22,09,47,7.30
2017,05,22,09,48,6.40
2017,05,22,09,49,6.30
2017,05,22,09,50,8.20
2017,05,22,09,51,4.40
2017,05,22,09,52,4.80
2017,05,22,09,53,5.00
2017,05,22,09,54,7.70
2017,05,22,09,55,3.70
2017,05,22,09,56,4.30
2017,05,22,09,57,3.50
2017,05,22,09,58,2.30
2017,05,22,09,59,5.10
2017,05,22,10,00,4.20
2017,05,22,10,01,8.80
2017,05,22,10,02,5.90
2017,05,22,10,03,9.00
2017,05,22,10,04,7.70
2017,05,22,10,05,4.80
2017,05,22,10,06,5.40
2017,05,22,10,07,1.80
2017,05,22,10,08,6.10
2017,05,22,10,09,4.40
2017,05,22,10,10,5.70
2017,05,22,10,11,4.60
2017,05,22,10,12,7.00
2017,05,22,10,13,7.50
2017,05,22,10,14,11.20
2017,05,22,10,15,7.30
2017,05,22,10,16,0.70
2017,05,22,10,17,6.50
2017,05,22,10,18,9.30
2017,05,22,10,19,6.20
2017,05,22,10,20,2.50
2017,05,22,10,21,10.20
2017,05,22,10,22,5.10
2017,05,22,10,23,1.40
2017,05,22,10,24,4.20
2017,05,22,10,25,1.90
2017,05,22,10,26,8.50
2017,05,22,10,27,4.70
2017,05,22,10,28,4.50
2017,05,22,10,29,7.20
2017,05,22,10,30,8.90
2017,05,22,10,31,10.90
2017,05,22,10,32,9.00
2017,05,22,10,33,11.00
2017,05,22,10,34,8.90
2017,05,22,10,35,9.40
2017,05,22,10,36,8.90
2017,05,22,10,37,8.80
2017,05,22,10,38,5.60
2017,05,22,10,39,5.30
2017,05,22,10,40,7.10
2017,05,22,10,41,10.70
2017,05,22,10,42,7.40
2017,05,22,10,43,4.80
2017,05,22,10,44,7.50
2017,05,22,10,45,4.70
2017,05,22,10,46,8.30
2017,05,22,10,47,9.70
2017,05,22,10,48,3.30
2017,05,22,10,49,4.60
2017,05,22,10,50,9.50
2017,05,22,10,51,7.10
2017,05,22,10,52,5.80
2017,05,22,10,53,5.90
2017,05,22,10,54,7.10
2017,05,22,10,55,5.50
2017,05,22,10,56,5.60
2017,05,22,10,57,7.90
2017,05,22,10,58,9.00
2017,05,22,10,59,6.90
2017,05,22,11,00,6.80
2017,05,22,11,01,6.40
2017,05,22,11,02,8.60
2017,05,22,11,03,6.80
2017,05,22,11,04,9.70
2017,05,22,11,05,7.50
2017,05,22,11,06,4.70
2017,05,22,11,07,6.80
2017,05,22,11,08,6.20
2017,05,22,11,09,5.30
2017,05,22,11,10,1.20
2017,05,22,11,11,4.70
2017,05,22,11,12,10.60
2017,05,22,11,13,6.90
2017,05,22,11,14,6.30
2017,05,22,11,15,4.00
2017,05,22,11,16,6.80
2017,05,22,11,17,5.30
2017,05,22,11,18,7.40
2017,05,22,11,19,5.70
2017,05,22,11,20,4.20
2017,05,22,11,21,11.60
2017,05,22,11,22,5.60
2017,05,22,11,23,6.70
2017,05,22,11,24,8.70
2017,05,22,11,25,8.30
2017,05,22,11,26,9.60
2017,05,22,11,27,6.50
2017,05,22,11,28,6.60
2017,05,22,11,29,2.00
2017,05,22,11,30,2.80
2017,05,22,11,31,4.60
2017,05,22,11,32,3.70
2017,05,22,11,33,0.90
2017,05,22,11,34,3.20
2017,05,22,11,35,6.90
2017,05,22,11,36,5.90
2017,05,22,11,37,9.40
2017,05,22,11,38,6.30
2017,05,22,11,39,8.70
2017,05,22,11,40,13.20
2017,05,22,11,41,3.50
2017,05,22,11,42,1.90
2017,05,22,11,43,7.40
2017,05,22,11,44,10.40
2017,05,22,11,45,6.30
2017,05,22,11,46,5.60
2017,05,22,11,47,6.80
2017,05,22,11,48,9.50
2017,05,22,11,49,8.40
2017,05,22,11,50,2.80
2017,05,22,11,51,3.20
2017,05,22,11,52,4.10
2017,05,22,11,53,3.60
2017,05,22,11,54,8.30
2017,05,22,11,55,5.20
2017,05,22,11,56,0.30
2017,05,22,11,57,3.90
2017,05,22,11,58,5.40
2017,05,22,11,59,1.50
2017,05,22,12,00,5.80
2017,05,22,12,01,0.90
2017,05,22,12,02,4.70
2017,05,22,12,03,0.50
2017,05,22,12,04,0.60
2017,05,22,12,05,5.70
2017,05,22,12,06,3.30
2017,05,22,12,07,5.50
2017,05,22,12,08,2.20
2017,05,22,12,09,4.40
2017,05,22,12,10,3.30
2017,05,22,12,11,3.40
2017,05,22,12,12,1.60
2017,05,22,12,13,2.50
2017,05,22,12,14,4.30
2017,05,22,12,15,6.40
2017,05,22,12,16,1.20
2017,05,22,12,17,5.40
2017,05,22,12,18,1.70
2017,05,22,12,19,1.90
2017,05,22,12,20,7.00
2017,05,22,12,21,4.50
2017,05,22,12,22,1.60
2017,05,22,12,23,0.60
2017,05,22,12,24,8.60
2017,05,22,12,25,4.40
2017,05,22,12,26,6.50
2017,05,22,12,27,5.90
2017,05,22,12,28,5.20
2017,05,22,12,29,3.30
2017,05,22,12,30,5.70
2017,05,22,12,31,3.00
2017,05,22,12,32,5.00
2017,05,22,12,33,4.80
2017,05,22,12,34,10.40
2017,05,22,12,35,11.50
2017,05,22,12,36,2.20
2017,05,22,12,37,2.70
2017,05,22,12,38,6.80
2017,05,22,12,39,3.00
2017,05,22,12,40,5.50
2017,05,22,12,41,7.80
2017,05,22,12,42,3.70
2017,05,22,12,43,7.10
2017,05,22,12,44,7.10
2017,05,22,12,45,9.90
2017,05,22,12,46,12.80
2017,05,22,12,47,10.00
2017,05,22,12,48,9.20
2017,05,22,12,49,10.30
2017,05,22,12,50,7.60
2017,05,22,12,51,7.50
2017,05,22,12,52,7.10
2017,05,22,12,53,11.00
2017,05,22,12,54,9.00
2017,05,22,12,55,5.70
2017,05,22,12,56,6.90
2017,05,22,12,57,2.40
2017,05,22,12,58,6.10
2017,05,22,12,59,8.90
2017,05,22,13,00,1.80
2017,05,22,13,01,1.70
2017,05,22,13,02,6.60
2017,05,22,13,03,9.70
2017,05,22,13,04,8.30
2017,05,22,13,05,6.60
2017,05,22,13,06,1.90
2017,05,22,13,07,3.20
2017,05,22,13,08,5.80
2017,05,22,13,09,2.90
2017,05,22,13,10,9.20
2017,05,22,13,11,5.10
2017,05,22,13,12,6.00
2017,05,22,13,13,7.60
2017,05,22,13,14,4.30
2017,05,22,13,15,7.10
2017,05,22,13,16,11.20
2017,05,22,13,17,12.20
2017,05,22,13,18,12.70
2017,05,22,13,19,11.90
2017,05,22,13,20,13.10
2017,05,22,13,21,13.70
2017,05,22,13,22,8.30
2017,05,22,13,23,10.30
2017,05,22,13,24,9.60
2017,05,22,13,25,9.20
2017,05,22,13,26,5.70
2017,05,22,13,27,10.30
2017,05,22,13,28,6.30
2017,05,22,13,29,2.80
2017,05,22,13,30,5.70
2017,05,22,13,31,6.30
2017,05,22,13,32,10.90
2017,05,22,13,33,10.60
2017,05,22,13,34,11.50
2017,05,22,13,35,10.00
2017,05,22,13,36,8.70
2017,05,22,13,37,6.60
2017,05,22,13,38,4.10
2017,05,22,13,39,10.30
2017,05,22,13,40,9.80
2017,05,22,13,41,9.10
2017,05,22,13,42,9.80
2017,05,22,13,43,10.50
2017,05,22,13,44,7.60
2017,05,22,13,45,8.70
2017,05,22,13,46,14.40
2017,05,22,13,47,12.70
2017,05,22,13,48,7.60
2017,05,22,13,49,12.30
2017,05,22,13,50,11.40
2017,05,22,13,51,5.90
2017,05,22,13,52,12.10
2017,05,22,13,53,11.30
2017,05,22,13,54,12.40
2017,05,22,13,55,8.40
2017,05,22,13,56,6.70
2017,05,22,13,57,4.20
2017,05,22,13,58,6.10
2017,05,22,13,59,3.70
2017,05,22,14,00,3.40
2017,05,22,14,01,9.60
2017,05,22,14,02,13.90
2017,05,22,14,03,14.50
2017,05,22,14,04,11.60
2017,05,22,14,05,7.30
2017,05,22,14,06,9.60
2017,05,22,14,07,12.70
2017,05,22,14,08,6.00
2017,05,22,14,09,7.90
2017,05,22,14,10,10.40
2017,05,22,14,11,7.20
2017,05,22,14,12,10.80
2017,05,22,14,13,15.20
2017,05,22,14,14,16.30
2017,05,22,14,15,15.80
2017,05,22,14,16,13.90
2017,05,22,14,17,8.00
2017,05,22,14,18,4.50
2017,05,22,14,19,6.00
2017,05,22,14,20,8.70
2017,05,22,14,21,8.80
2017,05,22,14,22,7.10
2017,05,22,14,23,4.10
2017,05,22,14,24,5.40
2017,05,22,14,25,11.30
2017,05,22,14,26,12.40
2017,05,22,14,27,6.70
2017,05,22,14,28,9.50
2017,05,22,14,29,9.90
2017,05,22,14,30,8.20
2017,05,22,14,31,8.50
2017,05,22,14,32,13.80
2017,05,22,14,33,10.10
2017,05,22,14,34,7.90
2017,05,22,14,35,6.40
2017,05,22,14,36,8.20
2017,05,22,14,37,6.80
2017,05,22,14,38,8.50
2017,05,22,14,39,6.50
2017,05,22,14,40,8.40
2017,05,22,14,41,9.20
2017,05,22,14,42,3.60
2017,05,22,14,43,7.70
2017,05,22,14,44,4.90
2017,05,22,14,45,8.30
2017,05,22,14,46,11.30
2017,05,22,14,47,11.60
2017,05,22,14,48,7.30
2017,05,22,14,49,3.50
2017,05,22,14,50,2.40
2017,05,22,14,51,7.10
2017,05,22,14,52,8.00
2017,05,22,14,53,3.20
2017,05,22,14,54,6.70
2017,05,22,14,55,13.20
2017,05,22,14,56,8.40
2017,05,22,14,57,9.30
2017,05,22,14,58,5.70
2017,05,22,14,59,4.70
2017,05,22,15,00,3.80
2017,05,22,15,01,2.00
2017,05,22,15,02,7.90
2017,05,22,15,03,12.40
2017,05,22,15,04,8.00
2017,05,22,15,05,5.10
2017,05,22,15,06,8.30
2017,05,22,15,07,5.80
2017,05,22,15,08,0.90
2017,05,22,15,09,6.30
2017,05,22,15,10,5.90
2017,05,22,15,11,2.40
2017,05,22,15,12,4.00
2017,05,22,15,13,10.70
2017,05,22,15,14,8.20
2017,05,22,15,15,5.60
2017,05,22,15,16,6.60
2017,05,22,15,17,8.00
2017,05,22,15,18,4.90
2017,05,22,15,19,3.40
2017,05,22,15,20,2.90
2017,05,22,15,21,2.60
2017,05,22,15,22,4.00
2017,05,22,15,23,7.80
2017,05,22,15,24,7.80
2017,05,22,15,25,6.70
2017,05,22,15,26,4.50
2017,05,22,15,27,8.30
2017,05,22,15,28,7.30
2017,05,22,15,29,11.90
2017,05,22,15,30,8.70
2017,05,22,15,31,6.40
2017,05,22,15,32,10.20
2017,05,22,15,33,8.60
2017,05,22,15,34,5.10
2017,05,22,15,35,8.00
2017,05,22,15,36,7.40
2017,05,22,15,37,6.70
2017,05,22,15,38,6.00
2017,05,22,15,39,3.00
2017,05,22,15,40,4.40
2017,05,22,15,41,9.70
2017,05,22,15,42,5.50
2017,05,22,15,43,2.30
2017,05,22,15,44,0.60
2017,05,22,15,45,0.10
2017,05,22,15,46,1.20
2017,05,22,15,47,8.30
2017,05,22,15,48,2.60
2017,05,22,15,49,1.90
2017,05,22,15,50,2.90
2017,05,22,15,51,1.90
2017,05,22,15,52,6.70
2017,05,22,15,53,2.70
2017,05,22,15,54,4.80
2017,05,22,15,55,10.70
2017,05,22,15,56,9.70
2017,05,22,15,57,6.40
2017,05,22,15,58,7.50
2017,05,22,15,59,5.00
2017,05,22,16,00,3.10
2017,05,22,16,01,8.20
2017,05,22,16,02,4.30
2017,05,22,16,03,0.70
2017,05,22,16,04,0.20
2017,05,22,16,05,1.90
2017,05,22,16,06,1.60
2017,05,22,16,07,9.00
2017,05,22,16,08,5.30
2017,05,22,16,09,3.20
2017,05,22,16,10,1.60
2017,05,22,16,11,2.40
2017,05,22,16,12,1.60
2017,05,22,16,13,1.10
2017,05,22,16,14,0.80
2017,05,22,16,15,3.60
2017,05,22,16,16,0.30
2017,05,22,16,17,1.50
2017,05,22,16,18,1.30
2017,05,22,16,19,0.10
2017,05,22,16,20,0.20
2017,05,22,16,21,2.90
2017,05,22,16,22,3.60
2017,05,22,16,23,2.00
2017,05,22,16,24,3.40
2017,05,22,16,25,3.80
2017,05,22,16,26,3.20
2017,05,22,16,27,2.00
2017,05,22,16,28,0.30
2017,05,22,16,29,0.70
2017,05,22,16,30,6.00
2017,05,22,16,31,7.70
2017,05,22,16,32,7.60
2017,05,22,16,33,8.60
2017,05,22,16,34,7.60
2017,05,22,16,35,7.60
2017,05,22,16,36,8.00
2017,05,22,16,37,8.40
2017,05,22,16,38,7.40
2017,05,22,16,39,6.20
2017,05,22,16,40,6.20
2017,05,22,16,41,6.40
2017,05,22,16,42,4.80
2017,05,22,16,43,4.40
2017,05,22,16,44,5.10
2017,05,22,16,45,3.70
2017,05,22,16,46,0.80
2017,05,22,16,47,4.00
2017,05,22,16,48,2.40
2017,05,22,16,49,5.30
2017,05,22,16,50,6.40
2017,05,22,16,51,3.20
2017,05,22,16,52,3.60
2017,05,22,16,53,7.50
2017,05,22,16,54,3.30
2017,05,22,16,55,5.60
2017,05,22,16,56,5.30
2017,05,22,16,57,6.70
2017,05,22,16,58,4.80
2017,05,22,16,59,6.70
2017,05,22,17,00,4.30
2017,05,22,17,01,4.30
2017,05,22,17,02,5.50
2017,05,22,17,03,4.90
2017,05,22,17,04,3.50
2017,05,22,17,05,1.20
2017,05,22,17,06,3.40
2017,05,22,17,07,1.90
2017,05,22,17,08,1.30
2017,05,22,17,09,3.10
2017,05,22,17,10,1.70
2017,05,22,17,11,0.90
2017,05,22,17,12,3.20
2017,05,22,17,13,3.40
2017,05,22,17,14,5.30
2017,05,22,17,15,2.40
2017,05,22,17,16,0.90
2017,05,22,17,17,2.90
2017,05,22,17,18,1.60
2017,05,22,17,19,1.70
2017,05,22,17,20,2.50
2017,05,22,17,21,2.10
2017,05,22,17,22,2.00
2017,05,22,17,23,3.10
2017,05,22,17,24,4.10
2017,05,22,17,25,1.80
2017,05,22,17,26,5.30
2017,05,22,17,27,3.10
2017,05,22,17,28,5.50
2017,05,22,17,29,3.00
2017,05,22,17,30,4.60
2017,05,22,17,31,3.80
2017,05,22,17,32,7.30
2017,05,22,17,33,1.40
2017,05,22,17,34,5.60
2017,05,22,17,35,6.70
2017,05,22,17,36,3.20
2017,05,22,17,37,3.30
2017,05,22,17,38,0.30
2017,05,22,17,39,2.60
2017,05,22,17,40,6.40
2017,05,22,17,41,0.80
2017,05,22,17,42,4.30
2017,05,22,17,43,4.00
2017,05,22,17,44,5.40
2017,05,22,17,45,3.70
2017,05,22,17,46,2.50
2017,05,22,17,47,2.40
2017,05,22,17,48,3.40
2017,05,22,17,49,2.90
2017,05,22,17,50,1.90
2017,05,22,17,51,4.90
2017,05,22,17,52,3.70
2017,05,22,17,53,3.30
2017,05,22,17,54,5.50
2017,05,22,17,55,3.70
2017,05,22,17,56,1.30
2017,05,22,17,57,1.70
2017,05,22,17,58,1.30
2017,05,22,17,59,1.70
2017,05,22,18,00,2.50
2017,05,22,18,01,1.00
2017,05,22,18,02,2.00
2017,05,22,18,03,3.70
2017,05,22,18,04,5.20
2017,05,22,18,05,2.60
2017,05,22,18,06,2.10
2017,05,22,18,07,5.10
2017,05,22,18,08,2.60
2017,05,22,18,09,4.40
2017,05,22,18,10,2.70
2017,05,22,18,11,1.10
2017,05,22,18,12,6.60
2017,05,22,18,13,6.20
2017,05,22,18,14,5.50
2017,05,22,18,15,1.40
2017,05,22,18,16,4.70
2017,05,22,18,17,4.80
2017,05,22,18,18,5.40
2017,05,22,18,19,4.80
2017,05,22,18,20,3.50
2017,05,22,18,21,1.90
2017,05,22,18,22,1.20
2017,05,22,18,23,4.40
2017,05,22,18,24,3.40
2017,05,22,18,25,8.50
2017,05,22,18,26,7.10
2017,05,22,18,27,3.10
2017,05,22,18,28,1.40
2017,05,22,18,29,3.40
2017,05,22,18,30,2.70
2017,05,22,18,31,4.40
2017,05,22,18,32,5.20
2017,05,22,18,33,4.90
2017,05,22,18,34,3.60
2017,05,22,18,35,3.70
2017,05,22,18,36,1.70
2017,05,22,18,37,2.30
2017,05,22,18,38,2.80
2017,05,22,18,39,1.90
2017,05,22,18,40,4.90
2017,05,22,18,41,6.80
2017,05,22,18,42,6.50
2017,05,22,18,43,8.10
2017,05,22,18,44,5.70
2017,05,22,18,45,6.80
2017,05,22,18,46,7.10
2017,05,22,18,47,6.30
2017,05,22,18,48,5.20
2017,05,22,18,49,6.20
2017,05,22,18,50,5.40
2017,05,22,18,51,7.90
2017,05,22,18,52,9.10
2017,05,22,18,53,8.30
2017,05,22,18,54,5.60
2017,05,22,18,55,3.90
2017,05,22,18,56,7.80
2017,05,22,18,57,6.50
2017,05,22,18,58,3.30
2017,05,22,18,59,5.70
2017,05,22,19,00,4.60
2017,05,22,19,01,8.00
2017,05,22,19,02,2.80
2017,05,22,19,03,3.70
2017,05,22,19,04,4.70
2017,05,22,19,05,10.30
2017,05,22,19,06,8.80
2017,05,22,19,07,6.40
2017,05,22,19,08,6.70
2017,05,22,19,09,9.40
2017,05,22,19,10,8.90
2017,05,22,19,11,4.70
2017,05,22,19,12,6.30
2017,05,22,19,13,6.60
2017,05,22,19,14,8.80
2017,05,22,19,15,10.40
2017,05,22,19,16,7.30
2017,05,22,19,17,7.90
2017,05,22,19,18,7.60
2017,05,22,19,19,5.90
2017,05,22,19,20,7.70
2017,05,22,19,21,7.30
2017,05,22,19,22,8.60
2017,05,22,19,23,10.70
2017,05,22,19,24,9.90
2017,05,22,19,25,7.50
2017,05,22,19,26,3.80
2017,05,22,19,27,3.60
2017,05,22,19,28,7.30
2017,05,22,19,29,6.00
2017,05,22,19,30,6.30
2017,05,22,19,31,7.80
2017,05,22,19,32,8.30
2017,05,22,19,33,7.00
2017,05,22,19,34,3.10
2017,05,22,19,35,5.70
2017,05,22,19,36,3.90
2017,05,22,19,37,4.10
2017,05,22,19,38,3.50
2017,05,22,19,39,4.90
2017,05,22,19,40,1.10
2017,05,22,19,41,0.80
2017,05,22,19,42,1.30
2017,05,22,19,43,0.60
2017,05,22,19,44,2.70
2017,05,22,19,45,1.70
2017,05,22,19,46,0.10
2017,05,22,19,47,1.30
2017,05,22,19,48,4.00
2017,05,22,19,49,1.60
2017,05,22,19,50,3.80
2017,05,22,19,51,4.80
2017,05,22,19,52,3.80
2017,05,22,19,53,1.60
2017,05,22,19,54,3.60
2017,05,22,19,55,6.30
2017,05,22,19,56,6.70
2017,05,22,19,57,9.60
2017,05,22,19,58,6.90
2017,05,22,19,59,7.40
2017,05,22,20,00,7.40
2017,05,22,20,01,8.10
2017,05,22,20,02,7.30
2017,05,22,20,03,7.60
2017,05,22,20,04,7.50
2017,05,22,20,05,7.00
2017,05,22,20,06,5.30
2017,05,22,20,07,4.40
2017,05,22,20,08,2.70
2017,05,22,20,09,6.50
2017,05,22,20,10,4.80
2017,05,22,20,11,3.10
2017,05,22,20,12,5.30
2017,05,22,20,13,10.20
2017,05,22,20,14,7.90
2017,05,22,20,15,8.00
2017,05,22,20,16,6.70
2017,05,22,20,17,6.10
2017,05,22,20,18,5.60
2017,05,22,20,19,6.50
2017,05,22,20,20,6.50
2017,05,22,20,21,4.40
2017,05,22,20,22,7.40
2017,05,22,20,23,4.40
2017,05,22,20,24,5.80
2017,05,22,20,25,5.50
2017,05,22,20,26,8.20
2017,05,22,20,27,5.60
2017,05,22,20,28,5.90
2017,05,22,20,29,4.10
2017,05,22,20,30,7.80
2017,05,22,20,31,4.70
2017,05,22,20,32,0.80
2017,05,22,20,33,5.40
2017,05,22,20,34,4.00
2017,05,22,20,35,5.30
2017,05,22,20,36,7.50
2017,05,22,20,37,2.50
2017,05,22,20,38,2.70
2017,05,22,20,39,2.80
2017,05,22,20,40,7.20
2017,05,22,20,41,2.60
2017,05,22,20,42,2.20
2017,05,22,20,43,5.50
2017,05,22,20,44,9.00
2017,05,22,20,45,4.90
2017,05,22,20,46,4.40
2017,05,22,20,47,4.80
2017,05,22,20,48,6.30
2017,05,22,20,49,6.80
2017,05,22,20,50,5.40
2017,05,22,20,51,6.60
2017,05,22,20,52,5.30
2017,05,22,20,53,6.80
2017,05,22,20,54,6.50
2017,05,22,20,55,5.80
2017,05,22,20,56,7.30
2017,05,22,20,57,7.20
2017,05,22,20,58,6.30
2017,05,22,20,59,4.50
2017,05,22,21,00,4.70
2017,05,22,21,01,6.10
2017,05,22,21,02,6.00
2017,05,22,21,03,5.30
2017,05,22,21,04,1.80
2017,05,22,21,05,4.30
2017,05,22,21,06,7.40
2017,05,22,21,07,3.50
2017,05,22,21,08,3.80
2017,05,22,21,09,6.60
2017,05,22,21,10,5.00
2017,05,22,21,11,5.70
2017,05,22,21,12,4.80
2017,05,22,21,13,5.20
2017,05,22,21,14,7.10
2017,05,22,21,15,5.00
2017,05,22,21,16,2.30
2017,05,22,21,17,5.20
2017,05,22,21,18,4.00
2017,05,22,21,19,2.50
2017,05,22,21,20,5.20
2017,05,22,21,21,5.70
2017,05,22,21,22,7.70
2017,05,22,21,23,5.80
2017,05,22,21,24,7.60
2017,05,22,21,25,5.30
2017,05,22,21,26,8.50
2017,05,22,21,27,6.30
2017,05,22,21,28,6.80
2017,05,22,21,29,6.80
2017,05,22,21,30,3.50
2017,05,22,21,31,3.40
2017,05,22,21,32,1.50
2017,05,22,21,33,2.30
2017,05,22,21,34,1.10
2017,05,22,21,35,0.00
2017,05,22,21,36,0.10
2017,05,22,21,37,0.90
2017,05,22,21,38,0.10
2017,05,22,21,39,0.00
2017,05,22,21,40,0.10
2017,05,22,21,41,0.10
2017,05,22,21,42,0.40
2017,05,22,21,43,0.80
2017,05,22,21,44,0.10
2017,05,22,21,45,0.10
2017,05,22,21,46,0.00
2017,05,22,21,47,0.00
2017,05,22,21,48,1.30
2017,05,22,21,49,0.20
2017,05,22,21,50,0.00
2017,05,22,21,51,0.00
2017,05,22,21,52,0.00
2017,05,22,21,53,0.10
2017,05,22,21,54,0.00
2017,05,22,21,55,0.00
2017,05,22,21,56,0.30
2017,05,22,21,57,0.50
2017,05,22,21,58,0.80
2017,05,22,21,59,3.40
2017,05,22,22,00,0.90
2017,05,22,22,01,0.20
2017,05,22,22,02,0.20
2017,05,22,22,03,0.20
2017,05,22,22,04,0.00
2017,05,22,22,05,2.00
2017,05,22,22,06,1.50
2017,05,22,22,07,0.10
2017,05,22,22,08,2.70
2017,05,22,22,09,0.20
2017,05,22,22,10,0.00
2017,05,22,22,11,0.00
2017,05,22,22,12,0.00
2017,05,22,22,13,0.00
2017,05,22,22,14,0.00
2017,05,22,22,15,0.10
2017,05,22,22,16,0.10
2017,05,22,22,17,0.10
2017,05,22,22,18,0.00
2017,05,22,22,19,0.00
2017,05,22,22,20,0.00
2017,05,22,22,21,0.40
2017,05,22,22,22,0.10
2017,05,22,22,23,0.00
2017,05,22,22,24,0.00
2017,05,22,22,25,0.00
2017,05,22,22,26,0.00
2017,05,22,22,27,0.10
2017,05,22,22,28,0.00
2017,05,22,22,29,0.00
2017,05,22,22,30,0.00
2017,05,22,22,31,0.00
2017,05,22,22,32,0.00
2017,05,22,22,33,0.00
2017,05,22,22,34,0.00
2017,05,22,22,35,0.00
2017,05,22,22,36,0.00
2017,05,22,22,37,0.00
2017,05,22,22,38,0.00
2017,05,22,22,39,0.00
2017,05,22,22,40,0.00
2017,05,22,22,41,0.00
2017,05,22,22,42,0.00
2017,05,22,22,43,0.00
2017,05,22,22,44,0.00
2017,05,22,22,45,0.00
2017,05,22,22,46,0.00
2017,05,22,22,47,0.00
2017,05,22,22,48,0.00
2017,05,22,22,49,0.00
2017,05,22,22,50,0.00
2017,05,22,22,51,0.00
2017,05,22,22,52,0.00
2017,05,22,22,53,0.00
2017,05,22,22,54,0.00
2017,05,22,22,55,0.00
2017,05,22,22,56,0.00
2017,05,22,22,57,0.00
2017,05,22,22,58,0.00
2017,05,22,22,59,0.10
2017,05,22,23,00,0.00
2017,05,22,23,01,0.00
2017,05,22,23,02,0.00
2017,05,22,23,03,0.00
2017,05,22,23,04,0.00
2017,05,22,23,05,0.00
2017,05,22,23,06,0.00
2017,05,22,23,07,0.00
2017,05,22,23,08,0.00
2017,05,22,23,09,0.00
2017,05,22,23,10,0.00
2017,05,22,23,11,0.00
2017,05,22,23,12,0.10
2017,05,22,23,13,0.00
2017,05,22,23,14,0.00
2017,05,22,23,15,0.00
2017,05,22,23,16,0.00
2017,05,22,23,17,0.00
2017,05,22,23,18,0.00
2017,05,22,23,19,0.00
2017,05,22,23,20,0.00
2017,05,22,23,21,0.00
2017,05,22,23,22,0.00
2017,05,22,23,23,0.00
2017,05,22,23,24,0.00
2017,05,22,23,25,0.00
2017,05,22,23,26,0.00
2017,05,22,23,27,0.00
2017,05,22,23,28,0.00
2017,05,22,23,29,0.00
2017,05,22,23,30,0.00
2017,05,22,23,31,0.00
2017,05,22,23,32,0.00
2017,05,22,23,33,0.00
2017,05,22,23,34,0.00
2017,05,22,23,35,0.00
2017,05,22,23,36,0.00
2017,05,22,23,37,0.00
2017,05,22,23,38,0.00
2017,05,22,23,39,0.00
2017,05,22,23,40,0.00
2017,05,22,23,41,0.00
2017,05,22,23,42,0.00
2017,05,22,23,43,0.00
2017,05,22,23,44,0.00
2017,05,22,23,45,0.00
2017,05,22,23,46,0.00
2017,05,22,23,47,0.10
2017,05,22,23,48,0.10
2017,05,22,23,49,0.10
2017,05,22,23,50,0.00
2017,05,22,23,51,0.00
2017,05,22,23,52,0.00
2017,05,22,23,53,0.00
2017,05,22,23,54,0.00
2017,05,22,23,55,0.00
2017,05,22,23,56,0.00
2017,05,22,23,57,0.00
2017,05,22,23,58,0.00
2017,05,22,23,59,0.00
